MSC Krittika — H3RV — position and weather

sailwx.info

Track history (hours):
 
Tides and Currents Weather Stations Pressure Air Temp Water Temp Dewpoint Dewpoint Depression Visibility Wind Speed Wind Dir Waves Ship Positions

MSC Krittika

Last reported at 2014-Jul-24 14:32 UTC. Time now 2014-Jul-24 14:39 UTC.
Position N 33°39' E 130°24'.

Length 202 m; draft 8.2 m.

Type: Ship (hazmat cat A). MMSI: 354725000.

Date/timePositionNaut miles runAvg speedWind from/ knotsBaromVisibWave heightAir tempDewpointWater temp
2014-Jul-24 14:32N 33°39' E 130°24'0 0.0
2014-Jul-24 13:32N 33°39' E 130°24'0 0.0
2014-Jul-24 12:32N 33°39' E 130°24'0 0.2
2014-Jul-24 11:32N 33°39' E 130°24'7 7.4
2014-Jul-24 10:33N 33°41' E 130°15'5 5.2
2014-Jul-24 09:33N 33°44' E 130°10'1514.7
2014-Jul-24 08:33N 33°41' E 129°53'78416.6
2014-Jul-22 09:23N 24°30' E 119°16'5416.9
2014-Jul-22 06:09N 23°57' E 118°28'1017.2
2014-Jul-22 05:33N 23°50' E 118°20'1817.4
2014-Jul-22 04:30N 23°39' E 118°05'1717.0
2014-Jul-22 03:32N 23°27' E 117°52'1716.4
2014-Jul-22 02:29N 23°15' E 117°38'3917.0
2014-Jul-22 00:11N 22°48' E 117°07'17015.7
2014-Jul-21 13:19N 22°18' E 114°06'1011.1
2014-Jul-21 12:23N 22°22' E 113°55'6 6.7
2014-Jul-21 11:33N 22°27' E 113°53'1 0.6
2014-Jul-21 09:28N 22°28' E 113°53'0 0.1
2014-Jul-21 08:22N 22°28' E 113°53'0 0.0
2014-Jul-21 07:10N 22°28' E 113°53'0 0.1
2014-Jul-21 06:22N 22°28' E 113°53'0 0.0
2014-Jul-21 05:22N 22°28' E 113°53'0 0.1
2014-Jul-21 04:28N 22°28' E 113°53'0 0.0
2014-Jul-21 03:16N 22°28' E 113°53'0 0.1
2014-Jul-21 02:16N 22°28' E 113°53'0 0.0
2014-Jul-21 01:28N 22°28' E 113°53'0 0.0
2014-Jul-21 00:22N 22°28' E 113°53'0 0.1
2014-Jul-20 23:31N 22°28' E 113°53'0 0.0
2014-Jul-20 22:28N 22°28' E 113°53'0 0.0
2014-Jul-20 21:31N 22°28' E 113°53'0 0.1
2014-Jul-20 20:28N 22°28' E 113°53'0 0.1
2014-Jul-20 19:28N 22°28' E 113°53'0 0.0
2014-Jul-20 18:28N 22°28' E 113°53'0 0.0
2014-Jul-20 17:28N 22°28' E 113°53'0 0.0
2014-Jul-20 16:31N 22°28' E 113°53'0 0.0
2014-Jul-20 14:28N 22°28' E 113°53'0 0.0
2014-Jul-20 13:04N 22°28' E 113°53'0 0.0
2014-Jul-20 11:13N 22°28' E 113°53'0 0.0
2014-Jul-20 10:19N 22°28' E 113°53'0 0.1
2014-Jul-20 09:32N 22°28' E 113°53'0 0.1
2014-Jul-20 06:32N 22°28' E 113°52'8 7.4
2014-Jul-20 05:30N 22°21' E 113°56'17613.5
2014-Jul-19 16:28N 22°47' E 117°05'5016.4
2014-Jul-19 13:25N 23°20' E 117°45'1517.7
2014-Jul-19 12:33N 23°31' E 117°57'1717.4
2014-Jul-19 11:33N 23°43' E 118°11'1716.5
2014-Jul-19 10:32N 23°50' E 118°27'1616.7
2014-Jul-19 09:34N 24°03' E 118°38'2016.0
2014-Jul-19 08:20N 24°15' E 118°55'1816.0
2014-Jul-19 07:13N 24°27' E 119°10'1416.0
2014-Jul-19 06:22N 24°35' E 119°22'  
2014-Jul-15 23:29N 34°57' E 139°30'1415.5
2014-Jul-15 22:34N 35°06' E 139°44'1212.2
2014-Jul-15 21:33N 35°19' E 139°44'9 9.3
2014-Jul-15 20:34N 35°28' E 139°42'0 0.2
2014-Jul-15 19:32N 35°28' E 139°42'0 0.0
2014-Jul-15 18:32N 35°28' E 139°42'0 0.0
2014-Jul-15 17:32N 35°28' E 139°42'0 0.0
2014-Jul-15 16:32N 35°28' E 139°42'0 0.0
2014-Jul-15 15:32N 35°28' E 139°42'0 0.0
2014-Jul-15 14:32N 35°28' E 139°42'0 0.0
2014-Jul-15 13:32N 35°28' E 139°42'0 0.0
2014-Jul-15 12:32N 35°28' E 139°42'0 0.0
2014-Jul-15 11:32N 35°28' E 139°42'0 0.0
2014-Jul-15 10:32N 35°28' E 139°42'0 0.0
2014-Jul-15 09:32N 35°28' E 139°42'2 1.6
2014-Jul-15 08:33N 35°27' E 139°43'7 6.8
2014-Jul-15 07:33N 35°20' E 139°44'1111.4
2014-Jul-15 06:33N 35°09' E 139°46'1615.5
2014-Jul-15 05:33N 34°54' E 139°39'1616.3
2014-Jul-15 04:33N 34°39' E 139°31'4313.0
2014-Jul-15 01:13N 34°33' E 138°39'  
Track history (hours):
 
Tides and Currents Weather Stations Pressure Air Temp Water Temp Dewpoint Dewpoint Depression Visibility Wind Speed Wind Dir Waves Ship Positions

MSC Krittika

Last reported at 2014-Jul-24 14:32 UTC. Time now 2014-Jul-24 14:39 UTC.
Position N 33°39' E 130°24'.

Length 202 m; draft 8.2 m.

Type: Ship (hazmat cat A). MMSI: 354725000.

Date/timePositionNaut miles runAvg speedWind from/ knotsBaromVisibWave heightAir tempDewpointWater temp
2014-Jul-24 14:32N 33°39' E 130°24'0 0.0
2014-Jul-24 13:32N 33°39' E 130°24'0 0.0
2014-Jul-24 12:32N 33°39' E 130°24'0 0.2
2014-Jul-24 11:32N 33°39' E 130°24'7 7.4
2014-Jul-24 10:33N 33°41' E 130°15'5 5.2
2014-Jul-24 09:33N 33°44' E 130°10'1514.7
2014-Jul-24 08:33N 33°41' E 129°53'78416.6
2014-Jul-22 09:23N 24°30' E 119°16'5416.9
2014-Jul-22 06:09N 23°57' E 118°28'1017.2
2014-Jul-22 05:33N 23°50' E 118°20'1817.4
2014-Jul-22 04:30N 23°39' E 118°05'1717.0
2014-Jul-22 03:32N 23°27' E 117°52'1716.4
2014-Jul-22 02:29N 23°15' E 117°38'3917.0
2014-Jul-22 00:11N 22°48' E 117°07'17015.7
2014-Jul-21 13:19N 22°18' E 114°06'1011.1
2014-Jul-21 12:23N 22°22' E 113°55'6 6.7
2014-Jul-21 11:33N 22°27' E 113°53'1 0.6
2014-Jul-21 09:28N 22°28' E 113°53'0 0.1
2014-Jul-21 08:22N 22°28' E 113°53'0 0.0
2014-Jul-21 07:10N 22°28' E 113°53'0 0.1
2014-Jul-21 06:22N 22°28' E 113°53'0 0.0
2014-Jul-21 05:22N 22°28' E 113°53'0 0.1
2014-Jul-21 04:28N 22°28' E 113°53'0 0.0
2014-Jul-21 03:16N 22°28' E 113°53'0 0.1
2014-Jul-21 02:16N 22°28' E 113°53'0 0.0
2014-Jul-21 01:28N 22°28' E 113°53'0 0.0
2014-Jul-21 00:22N 22°28' E 113°53'0 0.1
2014-Jul-20 23:31N 22°28' E 113°53'0 0.0
2014-Jul-20 22:28N 22°28' E 113°53'0 0.0
2014-Jul-20 21:31N 22°28' E 113°53'0 0.1
2014-Jul-20 20:28N 22°28' E 113°53'0 0.1
2014-Jul-20 19:28N 22°28' E 113°53'0 0.0
2014-Jul-20 18:28N 22°28' E 113°53'0 0.0
2014-Jul-20 17:28N 22°28' E 113°53'0 0.0
2014-Jul-20 16:31N 22°28' E 113°53'0 0.0
2014-Jul-20 14:28N 22°28' E 113°53'0 0.0
2014-Jul-20 13:04N 22°28' E 113°53'0 0.0
2014-Jul-20 11:13N 22°28' E 113°53'0 0.0
2014-Jul-20 10:19N 22°28' E 113°53'0 0.1
2014-Jul-20 09:32N 22°28' E 113°53'0 0.1
2014-Jul-20 06:32N 22°28' E 113°52'8 7.4
2014-Jul-20 05:30N 22°21' E 113°56'17613.5
2014-Jul-19 16:28N 22°47' E 117°05'5016.4
2014-Jul-19 13:25N 23°20' E 117°45'1517.7
2014-Jul-19 12:33N 23°31' E 117°57'1717.4
2014-Jul-19 11:33N 23°43' E 118°11'1716.5
2014-Jul-19 10:32N 23°50' E 118°27'1616.7
2014-Jul-19 09:34N 24°03' E 118°38'2016.0
2014-Jul-19 08:20N 24°15' E 118°55'1816.0
2014-Jul-19 07:13N 24°27' E 119°10'1416.0
2014-Jul-19 06:22N 24°35' E 119°22'  
2014-Jul-15 23:29N 34°57' E 139°30'1415.5
2014-Jul-15 22:34N 35°06' E 139°44'1212.2
2014-Jul-15 21:33N 35°19' E 139°44'9 9.3
2014-Jul-15 20:34N 35°28' E 139°42'0 0.2
2014-Jul-15 19:32N 35°28' E 139°42'0 0.0
2014-Jul-15 18:32N 35°28' E 139°42'0 0.0
2014-Jul-15 17:32N 35°28' E 139°42'0 0.0
2014-Jul-15 16:32N 35°28' E 139°42'0 0.0
2014-Jul-15 15:32N 35°28' E 139°42'0 0.0
2014-Jul-15 14:32N 35°28' E 139°42'0 0.0
2014-Jul-15 13:32N 35°28' E 139°42'0 0.0
2014-Jul-15 12:32N 35°28' E 139°42'0 0.0
2014-Jul-15 11:32N 35°28' E 139°42'0 0.0
2014-Jul-15 10:32N 35°28' E 139°42'0 0.0
2014-Jul-15 09:32N 35°28' E 139°42'2 1.6
2014-Jul-15 08:33N 35°27' E 139°43'7 6.8
2014-Jul-15 07:33N 35°20' E 139°44'1111.4
2014-Jul-15 06:33N 35°09' E 139°46'1615.5
2014-Jul-15 05:33N 34°54' E 139°39'1616.3
2014-Jul-15 04:33N 34°39' E 139°31'4313.0
2014-Jul-15 01:13N 34°33' E 138°39'  

Dump ship's entire track history